sat.trackr.live / text

‹ back to catalog

GRUS-3F

NORAD 69894 · 2026-156AB

PAYLOAD ACTIVE UNKNOWN

§ Identity

Operator
Country
JPN
Launch date
2026-07-07
Launch site
AFWTR
Launch vehicle
Mass (kg)
RCS (m²)

External: N2YO · Heavens-Above · Gunter

§ Orbital elements

Epoch: 2026-09-19T22:33:27.601920Z

Period
96.54 min
Inclination
97.7466°
Eccentricity
0.0004170
Mean motion
14.91631750 rev/d
Perigee alt
589.9 km
Apogee alt
595.8 km
Semi-major
6,971.0 km
B*
8.0721e-5
RAAN
162.1356°
Arg perigee
258.3240°
Mean anomaly
101.7511°
Rev number
1,112

§ Raw data

GRUS-3F1 69894U 26156AB  26262.93990280  .00000755  00000+0  80721-4 0  99922 69894  97.7466 162.1356 0004170 258.3240 101.7511 14.91631750 11125

JSON: /api/v1/satellites/69894 · /tle

For live sub-satellite position, see the globe view (requires WebGL).

§ Visibility from observer

Set your observer location to see the next 7 days of passes ≥ 10°. The values pass through the URL so the page stays shareable.

No JS? Fill the form by hand. The geolocation button needs JavaScript.